Savannah, GA

5:04 AM EDT on April 20, 2018 (GMT -0400)
Savannah International

Weather History for KSAV - August, 2014

Change the Weather History Date:

Tuesday, August 12, 2014

  Actual Average Record
Temperature  
Mean Temperature 84 °F 82 °F  
Max Temperature 92 °F 91 °F 100 °F (1999)
Min Temperature 76 °F 73 °F 63 °F (1989)
Degree Days  
Heating Degree Days 0 0  
Month to date heating degree days 0 0  
Since 1 June heating degree days 0 0  
Since 1 July heating degree days 0 0  
Cooling Degree Days 19 17  
Month to date cooling degree days 219 205  
Year to date cooling degree days 1762 1600  
Since 1 June cooling degree days 1273 1197  
Growing Degree Days 33 (Base 50)    
Moisture  
Dew Point 74 °F    
Average Humidity 79    
Maximum Humidity 94    
Minimum Humidity 64    
Precipitation  
Precipitation 0.17 in 0.22 in 1.89 in (1875)
Month to date precipitation 2.91 2.58  
Year to date precipitation 34.56 30.39  
Sea Level Pressure  
Sea Level Pressure 29.89 in    
Wind  
Wind Speed 7 mph (SW)    
Max Wind Speed 20 mph    
Max Gust Speed 26 mph    
Visibility 9 miles    
Events Rain , Thunderstorm    
T = Trace of Precipitation, MM = Missing Value Source: NWS Daily Summary

Daily Weather History Graph

Daily Weather History Graph

Search for Another Location

Airport or City:

Astronomy

Aug. 12, 2014 Rise Set
Actual Time 6:47 AM EDT 8:11 PM EDT
Civil Twilight 6:21 AM EDT 8:37 PM EDT
Nautical Twilight 5:50 AM EDT 9:08 PM EDT
Astronomical Twilight 5:17 AM EDT 9:41 PM EDT
Moon 9:31 PM EDT (8/12) 8:52 AM EDT (8/12)
Length of Visible Light 14h 16m
Length of Day
13h 24m
Waning Gibbous, 95% of the Moon is Illuminated
Aug 12
Waning Gibbous
Aug 17
Last Quarter
Aug 25
New
Sep 2
First Quarter
Sep 8
Full

Hourly Weather History & Observations

Time (EDT) Temp. Heat Index Dew Point Humidity Pressure Visibility Wind Dir Wind Speed Gust Speed Precip Events Conditions
12:53 AM 78.1 °F - 73.9 °F 87% 29.94 in 10.0 mi WSW 3.5 mph - N/A   Clear
1:53 AM 77.0 °F - 73.9 °F 90% 29.93 in 10.0 mi Calm Calm - N/A   Clear
2:53 AM 77.0 °F - 73.9 °F 90% 29.92 in 10.0 mi West 3.5 mph - N/A   Clear
3:53 AM 77.0 °F - 73.9 °F 90% 29.91 in 10.0 mi West 4.6 mph - N/A   Mostly Cloudy
4:53 AM 77.0 °F - 73.9 °F 90% 29.90 in 10.0 mi West 3.5 mph - N/A   Overcast
5:53 AM 77.0 °F - 73.9 °F 90% 29.90 in 10.0 mi SW 4.6 mph - N/A   Mostly Cloudy
6:53 AM 75.9 °F - 73.0 °F 91% 29.90 in 9.0 mi SW 3.5 mph - N/A   Scattered Clouds
7:53 AM 77.0 °F - 73.0 °F 88% 29.91 in 10.0 mi WSW 5.8 mph - N/A   Scattered Clouds
8:53 AM 80.1 °F 84.5 °F 73.9 °F 81% 29.92 in 10.0 mi West 5.8 mph - N/A   Scattered Clouds
9:53 AM 84.0 °F 91.9 °F 75.0 °F 74% 29.92 in 10.0 mi WSW 4.6 mph - N/A   Scattered Clouds
10:53 AM 87.1 °F 97.3 °F 75.9 °F 69% 29.93 in 10.0 mi SW 4.6 mph - N/A   Scattered Clouds
11:53 AM 88.0 °F 97.5 °F 75.0 °F 65% 29.93 in 10.0 mi West 6.9 mph - N/A   Mostly Cloudy
1:44 PM 89.6 °F 98.2 °F 73.4 °F 59% 29.89 in 10.0 mi SSE 13.8 mph 17.3 mph N/A Thunderstorm Thunderstorm
1:53 PM 87.1 °F 96.3 °F 75.0 °F 67% 29.88 in 10.0 mi South 12.7 mph - 0.00 in Rain , Thunderstorm Light Thunderstorms and Rain
2:07 PM 82.4 °F 88.2 °F 73.4 °F 74% 29.89 in 3.0 mi West 11.5 mph 26.5 mph 0.00 in Rain , Thunderstorm Light Thunderstorms and Rain
2:26 PM 78.8 °F - 75.2 °F 89% 29.90 in 1.0 mi NW 10.4 mph - 0.01 in Rain , Thunderstorm Thunderstorms and Rain
2:42 PM 80.6 °F 87.1 °F 77.0 °F 89% 29.88 in 8.0 mi ENE 3.5 mph - 0.17 in Rain , Thunderstorm Light Thunderstorms and Rain
2:53 PM 82.9 °F 91.8 °F 77.0 °F 82% 29.88 in 10.0 mi East 8.1 mph - 0.17 in Thunderstorm Thunderstorm
3:21 PM 87.8 °F 99.7 °F 77.0 °F 70% 29.86 in 10.0 mi ESE 9.2 mph - N/A   Mostly Cloudy
3:53 PM 88.0 °F 98.5 °F 75.9 °F 67% 29.86 in 10.0 mi Variable 4.6 mph - N/A   Mostly Cloudy
4:53 PM 91.0 °F 104.2 °F 77.0 °F 63% 29.84 in 10.0 mi SSE 6.9 mph - N/A   Mostly Cloudy
5:53 PM 87.1 °F 98.8 °F 77.0 °F 72% 29.84 in 10.0 mi SSE 10.4 mph - N/A   Overcast
6:30 PM 86.0 °F 96.9 °F 77.0 °F 74% 29.85 in 10.0 mi SSW 9.2 mph - N/A Thunderstorm Thunderstorm
6:53 PM 84.9 °F 91.4 °F 73.0 °F 67% 29.84 in 10.0 mi SSW 13.8 mph 24.2 mph 0.00 in Rain , Thunderstorm Light Thunderstorms and Rain
7:15 PM 82.4 °F 87.2 °F 71.6 °F 70% 29.86 in 10.0 mi SW 13.8 mph - 0.00 in   Overcast
7:53 PM 81.0 °F 85.2 °F 72.0 °F 74% 29.86 in 10.0 mi SW 11.5 mph - 0.00 in   Overcast
8:53 PM 79.0 °F - 73.0 °F 82% 29.88 in 10.0 mi SW 8.1 mph - N/A   Overcast
9:53 PM 78.1 °F - 73.0 °F 84% 29.89 in 10.0 mi SSW 9.2 mph - N/A   Overcast
10:53 PM 78.1 °F - 72.0 °F 81% 29.91 in 10.0 mi SSW 6.9 mph - N/A   Overcast
11:53 PM 77.0 °F - 72.0 °F 84% 29.89 in 10.0 mi SW 6.9 mph - N/A   Mostly Cloudy